Location: Bastogne Gables
(35.1554°N, 78.9900°W)
Time: 03:22:56
(UTC+00:00)

H-2A R/B - Pass Details

Date: 29 October 2020
Orbit: 733 x 837 km, 98.2° (Epoch: 26 November)

Event Time Altitude Azimuth Distance (km) Brightness Sun altitude
Exits shadow 22:58:22 - 113° (ESE) 3,042 4.6 -7.7°
Reaches altitude 10° 23:00:46 10° 95° (E) 2,438 4.0 -8.1°
Maximum altitude 23:03:35 14° 64° (ENE) 2,144 3.7 -8.7°
Drops below altitude 10° 23:06:24 10° 32° (NNE) 2,455 4.2 -9.3°
Sets 23:09:51 0° 9° (N) 3,393 5.1 -10.0°
